Meteo pe oră la Dzielice

Astăzi, 16 Ianuarie, Sâmbătă

Timp Temperatura Precipitaţii Vânt Presiune Umiditate
00:00 -7°C° 0 mm 3 m/s 752 mmHg 95%
01:00 -8°C° 0 mm 4 m/s 752 mmHg 96%
02:00 -8°C° 0 mm 4 m/s 752 mmHg 95%
03:00 -8°C° 0 mm 4 m/s 752 mmHg 95%
04:00 -7°C° 0 mm 4 m/s 752 mmHg 95%
05:00 -7°C° 0 mm 4 m/s 752 mmHg 95%
06:00 -7°C° 0 mm 4 m/s 752 mmHg 94%
07:00 -8°C° 0 mm 5 m/s 752 mmHg 94%
08:00 -8°C° 0 mm 5 m/s 752 mmHg 94%
09:00 -8°C° 0 mm 5 m/s 751 mmHg 93%
10:00 -8°C° 0 mm 5 m/s 751 mmHg 93%
11:00 -8°C° 0 mm 5 m/s 751 mmHg 91%
12:00 -8°C° 0 mm 6 m/s 750 mmHg 90%
13:00 -8°C° 0 mm 6 m/s 750 mmHg 88%
14:00 -8°C° 0.1 mm 6 m/s 749 mmHg 90%
15:00 -8°C° 0.1 mm 6 m/s 749 mmHg 91%
16:00 -8°C° 0.1 mm 6 m/s 748 mmHg 93%
17:00 -8°C° 0.4 mm 7 m/s 748 mmHg 93%
18:00 -8°C° 0.4 mm 7 m/s 748 mmHg 93%
19:00 -8°C° 0.4 mm 8 m/s 747 mmHg 93%
20:00 -8°C° 0.3 mm 7 m/s 747 mmHg 94%
21:00 -8°C° 0.3 mm 7 m/s 748 mmHg 94%
22:00 -8°C° 0.3 mm 6 m/s 748 mmHg 94%
23:00 -10°C° 0.2 mm 5 m/s 748 mmHg 92%

Mâine, 17 Ianuarie, Duminică

Timp Temperatura Precipitaţii Vânt Presiune Umiditate
00:00 -11°C° 0.2 mm 4 m/s 748 mmHg 91%
01:00 -14°C° 0.2 mm 4 m/s 748 mmHg 89%
02:00 -14°C° 0 mm 3 m/s 748 mmHg 89%
03:00 -15°C° 0 mm 3 m/s 748 mmHg 90%
04:00 -17°C° 0 mm 3 m/s 748 mmHg 91%
05:00 -16°C° 0 mm 2 m/s 749 mmHg 92%
06:00 -17°C° 0 mm 2 m/s 749 mmHg 93%
07:00 -18°C° 0 mm 2 m/s 749 mmHg 93%
08:00 -15°C° 0 mm 1 m/s 750 mmHg 92%
09:00 -15°C° 0 mm 1 m/s 750 mmHg 91%
10:00 -14°C° 0 mm 1 m/s 750 mmHg 90%
11:00 -14°C° 0 mm 1 m/s 751 mmHg 88%
12:00 -13°C° 0 mm 1 m/s 751 mmHg 87%
13:00 -15°C° 0 mm 2 m/s 751 mmHg 86%
14:00 -13°C° 0 mm 1 m/s 751 mmHg 89%
15:00 -14°C° 0 mm 1 m/s 751 mmHg 91%
16:00 -15°C° 0 mm 1 m/s 751 mmHg 93%
17:00 -15°C° 0 mm 1 m/s 752 mmHg 93%
18:00 -15°C° 0 mm 1 m/s 752 mmHg 93%
19:00 -16°C° 0 mm 1 m/s 752 mmHg 93%
20:00 -16°C° 0 mm 1 m/s 753 mmHg 93%
21:00 -16°C° 0 mm 1 m/s 753 mmHg 93%
22:00 -16°C° 0 mm 1 m/s 753 mmHg 92%
23:00 -16°C° 0 mm 1 m/s 753 mmHg 92%

Poimâine, 18 Ianuarie, Luni

Timp Temperatura Precipitaţii Vânt Presiune Umiditate
00:00 -16°C° 0 mm 1 m/s 753 mmHg 92%
01:00 -16°C° 0 mm 1 m/s 753 mmHg 91%
02:00 -16°C° 0 mm 1 m/s 753 mmHg 91%
03:00 -15°C° 0 mm 1 m/s 753 mmHg 90%
04:00 -15°C° 0 mm 1 m/s 752 mmHg 90%
05:00 -15°C° 0 mm 1 m/s 753 mmHg 89%
06:00 -15°C° 0 mm 1 m/s 753 mmHg 89%
07:00 -15°C° 0 mm 1 m/s 753 mmHg 88%
08:00 -16°C° 0 mm 2 m/s 753 mmHg 88%
09:00 -15°C° 0 mm 2 m/s 753 mmHg 88%
10:00 -14°C° 0 mm 2 m/s 753 mmHg 88%
11:00 -13°C° 0 mm 2 m/s 752 mmHg 88%
12:00 -12°C° 0 mm 2 m/s 752 mmHg 88%
13:00 -10°C° 0 mm 2 m/s 752 mmHg 88%
14:00 -10°C° 0 mm 2 m/s 752 mmHg 89%
15:00 -10°C° 0 mm 2 m/s 751 mmHg 90%
16:00 -9°C° 0 mm 2 m/s 751 mmHg 91%
17:00 -9°C° 0.1 mm 2 m/s 751 mmHg 93%
18:00 -8°C° 0.1 mm 2 m/s 751 mmHg 94%
19:00 -8°C° 0.1 mm 3 m/s 751 mmHg 96%
20:00 -7°C° 0.2 mm 3 m/s 751 mmHg 96%
21:00 -5°C° 0.2 mm 3 m/s 750 mmHg 97%
22:00 -4°C° 0.2 mm 3 m/s 750 mmHg 97%
23:00 -3°C° 0.3 mm 4 m/s 750 mmHg 97%

19 Ianuarie, Marţi

Timp Temperatura Precipitaţii Vânt Presiune Umiditate
00:00 -2°C° 0.3 mm 4 m/s 750 mmHg 97%
01:00 -1°C° 0.3 mm 5 m/s 750 mmHg 97%
02:00 -1°C° 0.2 mm 5 m/s 749 mmHg 97%
03:00 -1°C° 0.2 mm 5 m/s 749 mmHg 97%
04:00 -1°C° 0.2 mm 5 m/s 749 mmHg 97%
05:00 -1°C° 0.2 mm 5 m/s 749 mmHg 97%
06:00 -2°C° 0.2 mm 5 m/s 749 mmHg 97%
07:00 -2°C° 0.2 mm 4 m/s 749 mmHg 97%
08:00 -2°C° 0 mm 4 m/s 748 mmHg 97%
09:00 -2°C° 0 mm 4 m/s 748 mmHg 96%
10:00 -2°C° 0 mm 4 m/s 748 mmHg 95%
11:00 -2°C° 0 mm 4 m/s 748 mmHg 94%
12:00 -2°C° 0 mm 4 m/s 747 mmHg 92%
13:00 -2°C° 0 mm 4 m/s 747 mmHg 90%
14:00 -2°C° 0 mm 4 m/s 746 mmHg 91%
15:00 -2°C° 0 mm 5 m/s 746 mmHg 92%
16:00 -2°C° 0 mm 5 m/s 745 mmHg 93%
17:00 -2°C° 0.4 mm 5 m/s 745 mmHg 94%
18:00 -3°C° 0.4 mm 6 m/s 744 mmHg 96%
19:00 -3°C° 0.4 mm 6 m/s 744 mmHg 97%
20:00 -3°C° 0.3 mm 6 m/s 743 mmHg 97%
21:00 -2°C° 0.3 mm 6 m/s 743 mmHg 96%
22:00 -2°C° 0.3 mm 6 m/s 743 mmHg 95%
23:00 -1°C° 0.1 mm 5 m/s 743 mmHg 94%

20 Ianuarie, Miercuri

Timp Temperatura Precipitaţii Vânt Presiune Umiditate
00:00 -1°C° 0.1 mm 5 m/s 743 mmHg 92%
01:00 -1°C° 0.1 mm 5 m/s 743 mmHg 90%
02:00 -1°C° 0 mm 5 m/s 742 mmHg 90%
03:00 -1°C° 0 mm 4 m/s 742 mmHg 90%
04:00 -1°C° 0 mm 4 m/s 742 mmHg 89%
05:00 -1°C° 0 mm 4 m/s 742 mmHg 89%
06:00 -1°C° 0 mm 4 m/s 742 mmHg 88%
07:00 -1°C° 0 mm 4 m/s 742 mmHg 88%
08:00 0°C° 0 mm 5 m/s 742 mmHg 88%
09:00 0°C° 0 mm 5 m/s 742 mmHg 87%
10:00 -1°C° 0 mm 6 m/s 742 mmHg 87%
11:00 -1°C° 0 mm 6 m/s 741 mmHg 86%
12:00 -1°C° 0 mm 6 m/s 741 mmHg 86%
13:00 -1°C° 0 mm 6 m/s 741 mmHg 85%
14:00 -1°C° 0 mm 6 m/s 741 mmHg 83%
15:00 -1°C° 0 mm 6 m/s 741 mmHg 82%
16:00 0°C° 0 mm 5 m/s 740 mmHg 80%
17:00 0°C° 0 mm 5 m/s 740 mmHg 80%
18:00 0°C° 0 mm 5 m/s 741 mmHg 80%
19:00 0°C° 0 mm 5 m/s 741 mmHg 80%
20:00 0°C° 0 mm 5 m/s 740 mmHg 79%
21:00 0°C° 0 mm 5 m/s 740 mmHg 78%
22:00 -1°C° 0 mm 6 m/s 740 mmHg 77%
23:00 -1°C° 0 mm 5 m/s 740 mmHg 75%

21 Ianuarie, Joi

Timp Temperatura Precipitaţii Vânt Presiune Umiditate
00:00 -1°C° 0 mm 5 m/s 740 mmHg 74%
01:00 -1°C° 0 mm 5 m/s 740 mmHg 73%
02:00 -1°C° 0 mm 5 m/s 739 mmHg 77%
03:00 -1°C° 0 mm 5 m/s 739 mmHg 80%
04:00 -1°C° 0 mm 5 m/s 739 mmHg 84%
05:00 -1°C° 0 mm 5 m/s 739 mmHg 86%
06:00 -1°C° 0 mm 4 m/s 738 mmHg 87%
07:00 0°C° 0 mm 3 m/s 738 mmHg 89%
08:00 0°C° 0 mm 3 m/s 738 mmHg 90%
09:00 0°C° 0 mm 3 m/s 738 mmHg 91%
10:00 0°C° 0 mm 3 m/s 737 mmHg 92%
11:00 +1°C° 0 mm 3 m/s 737 mmHg 93%
12:00 0°C° 0 mm 4 m/s 737 mmHg 94%
13:00 0°C° 0 mm 4 m/s 736 mmHg 96%
14:00 0°C° 0 mm 4 m/s 737 mmHg 93%
15:00 0°C° 0 mm 4 m/s 737 mmHg 91%
16:00 0°C° 0 mm 4 m/s 738 mmHg 89%
17:00 0°C° 0 mm 4 m/s 738 mmHg 88%
18:00 0°C° 0 mm 5 m/s 739 mmHg 87%
19:00 -1°C° 0 mm 5 m/s 739 mmHg 86%
20:00 -1°C° 0 mm 5 m/s 740 mmHg 87%
21:00 -1°C° 0 mm 4 m/s 740 mmHg 87%
22:00 -1°C° 0 mm 4 m/s 741 mmHg 88%
23:00 -1°C° 0 mm 4 m/s 741 mmHg 88%
Arată mai mult

Formular de consimțământ

Meteoprog și furnizorii noștri de servicii pot stoca și accesa date personale, precum cookies, identificatori de dispozitiv sau alte tehnologii similare pe dispozitivul dumneavoastră și procesa astfel de date pentru a personaliza conținutul și reclamele, dar și pentru a oferi caracteristici de social media și pentru a analiza traficul.

  • Stocarea și/sau accesarea informațiilor pe dispozitivul dumneavoastră

    Cookies, identificatori de dispozitiv sau alte informații pot fi stocate sau accesate pe dispozitiv în scopurile indicate mai sus.

  • Reclame și conținut personalizat, evaluarea reclamelor și a conținutului, informații despre audiențe și dezvoltarea produselor

    Reclamele și conținutul pot fi personalizate pe baza unui profil. Pot fi adăugate date suplimentare pentru a personaliza mai bine reclamele și conținutul. Performanța reclamelor și conținutului poate fi măsurată. Pot fi obținute informații despre utilizatorii care au văzut reclamele și conținutul. Aceste date pot fi utilizate pentru a dezvolta sau îmbunătăți experiența utilizatorilor, sistemele și software-ul.

Dând clic pe ‘Sunt de acord’, permiteți utilizarea cookie-urilor menționate, a identificatorilor de dispozitiv, balizelor web sau altor tehnologii similare. Setările pot fi modificate din browser-ul dispozitivului dumneavoastră.

În anumite scopuri, interesele legitime pot prima asupra consimțământului. Puteți citi mai multe informații în acest sens în Politica privind Confidențialitatea Datelor și Cookie.